Flag Weather past 2 weeks in Liestal, Basel-Land, Switzerland

Now
45 °F

Clear.


Feels Like: 45 °F
Forecast: 40 / 64 °F
Wind: 1 mph from North

Location: Bale-Mulhouse

Current Time: Oct 31, 2014 at 10:35:28 PM

Latest Report: Oct 31, 2014 at 10:00 PM


Visibility: 10 mi

Pressure: 30.24 "Hg

Humidity: 93%

Dew point: 43 °F

Location of LiestalLocation

Historic Weather in Liestal — Graph

°F

Liestal temperature yesterday

Maximum temperature yesterday: 64 °F (at 2:00 PM)
Minimum temperature yesterday: 43 °F (at 10:00 PM)
Average temperature yesterday: 52 °F

Past Weeks' High & Low Weather Summary

 TemperatureHumidityPressure
High75 °F (Oct 18, 4:30 PM)100% (Oct 16, 11:00 PM)30.30 "Hg (Oct 16, 11:00 PM)
Low34 °F (Oct 24, 5:00 AM)44% (Oct 23, 3:30 PM)29.74 "Hg (Oct 17, 5:30 AM)
Average53 °F83%30.16 "Hg
* Reported Oct 16 10:00 PM — Oct 31 9:30 PM, Liestal, Weather by CustomWeather, © 2014

Note: Actual official high and low records may vary slightly from our data, if they occured in-between our weather recording intervals... More about our weather records

Advertising

Liestal weather history for previous 24 hours

 ConditionsComfort  
Time TempWeatherWind HumidityBarometerVisibility
9:30 PM
Oct 31
45 °FClear.No wind93%30.24 "Hg10 mi
9:00 PM46 °FClear.1 mph93%30.24 "Hg10 mi
8:30 PM46 °FClear.2 mph93%30.24 "Hg10 mi
8:00 PM46 °FClear.2 mph87%30.24 "Hg10 mi
7:30 PM48 °FClear.2 mph87%30.24 "Hg10 mi
7:00 PM48 °FClear.2 mph87%30.24 "Hg10 mi
6:30 PM52 °FClear.1 mph82%30.24 "Hg10 mi
6:00 PM55 °FClear.No wind67%30.24 "Hg10 mi
5:30 PM59 °FClear.3 mph63%30.24 "Hg10 mi
5:00 PM59 °FPassing clouds.3 mph59%30.24 "HgN/A
4:30 PM63 °FPassing clouds.3 mph56%30.24 "HgN/A
4:00 PM64 °FPassing clouds.5 mph49%30.24 "HgN/A
3:30 PM66 °FPassing clouds.3 mph49%30.24 "HgN/A
3:00 PM66 °FPassing clouds.6 mph49%30.24 "HgN/A
2:30 PM66 °FPassing clouds.6 mph49%30.24 "HgN/A
2:00 PM64 °FPassing clouds.7 mph49%30.24 "HgN/A
1:30 PM64 °FPassing clouds.8 mph49%30.27 "HgN/A
12:30 PM64 °FPassing clouds.8 mph52%30.27 "HgN/A
12:00 PM63 °FPassing clouds.9 mph56%30.30 "HgN/A
11:30 AM61 °FPassing clouds.5 mph59%30.30 "HgN/A
11:00 AM59 °FPassing clouds.6 mph68%30.30 "HgN/A
10:30 AM57 °FPassing clouds.5 mph77%30.30 "HgN/A
10:00 AM54 °FClear.3 mph82%30.30 "Hg5 mi
9:30 AM50 °FClear.2 mph94%30.30 "Hg4 mi
9:00 AM46 °FClear.No wind100%30.30 "Hg4 mi
8:30 AM43 °FClear.No wind100%30.27 "Hg4 mi
8:00 AM41 °FFog.2 mph93%30.27 "Hg3 mi
7:30 AM41 °FFog.3 mph93%30.27 "Hg3 mi
7:00 AM41 °FFog.5 mph100%30.27 "Hg2 mi
6:30 AM39 °FClear.2 mph100%30.27 "Hg4 mi
6:00 AM41 °FFog.3 mph100%30.27 "Hg4 mi
5:30 AM41 °FFog.2 mph93%30.27 "Hg4 mi
5:00 AM41 °FFog.No wind93%30.27 "Hg4 mi
4:30 AM41 °FPassing clouds.No wind100%30.27 "Hg4 mi
4:00 AM43 °FPassing clouds.5 mph93%30.27 "Hg4 mi
3:30 AM43 °FPassing clouds.2 mph93%30.27 "Hg5 mi
3:00 AM43 °FClear.3 mph93%30.27 "Hg4 mi
2:30 AM43 °FFog.No wind93%30.27 "Hg2 mi
2:00 AM43 °FFog.2 mph93%30.27 "Hg3 mi
1:30 AM43 °FLight fog.No wind100%30.30 "Hg1 mi
1:00 AM43 °FFog.1 mph100%30.30 "Hg3 mi
12:30 AM43 °FClear.1 mph100%30.30 "Hg4 mi
12:00 AM45 °FClear.2 mph93%30.30 "Hg4 mi
11:30 PM
Oct 30
45 °FClear.No wind93%30.30 "Hg4 mi
11:00 PM45 °FClear.3 mph100%30.30 "Hg5 mi
10:30 PM43 °FClear.3 mph100%30.30 "Hg6 mi
10:00 PM43 °FClear.2 mph100%30.30 "Hg6 mi
Weather by CustomWeather, © 2014

See weather overviewHow to use our weather pages